Location: Mouri�ras
(45.6166°N, 1.9288°E)
Time: 19:33:45
(UTC+00:00)

Daily predictions for brighter satellites

Satellite Brightness Start Highest point End
(mag) Time Altitude Azimuth Time Altitude Azimuth Time Altitude Azimuth
Cosmos 2154 Rocket 4.0 18:05:36 10° S 18:11:48 81° E 18:18:01 10° N
ERS-2 3.0 18:12:23 10° NE 18:15:35 28° E 18:18:47 10° SSE
CZ-2C R/B 3.4 18:11:13 10° NNE 18:15:57 30° E 18:20:33 10° SSE
Cosmos 1689 Rocket 3.0 18:14:39 10° NE 18:17:09 26° E 18:19:38 10° SSE
USA 305 4.2 18:14:36 10° NW 18:18:21 29° N 18:22:06 10° ENE
SL-08 RB Rocket 4.5 18:14:59 10° SE 18:18:59 32° ENE 18:23:03 10° N
CREW DRAGON DEMO-1 DEB 3.7 18:18:47 10° SSW 18:21:17 29° SE 18:23:49 10° ENE
NOSS 3-2 (A) 4.3 18:17:04 10° SSE 18:21:24 24° ESE 18:26:09 10° ENE
H-2A R/B 3.7 18:17:47 10° N 18:21:36 37° WNW 18:25:24 10° SW
FALCON 9 DEB 4.0 18:19:58 10° NW 18:22:53 32° NNE 18:25:48 10° E
HJ-1C 3.9 18:20:24 10° SE 18:23:27 36° ENE 18:26:32 10° N
COSMOS 2428 3.3 18:18:35 10° S 18:23:39 35° ESE 18:28:45 10° NE
SL-16 R/B 3.8 18:21:36 10° WSW 18:26:51 38° NW 18:32:08 10° NNE
Cosmos 1470 Rocket 4.1 18:25:08 10° SSW 18:29:34 67° W 18:34:00 10° N
USA 307 4.1 18:28:23 10° NW 18:32:12 30° NNE 18:35:52 11° ENE
SL-8 Rocket 4.2 18:27:06 10° SSE 18:33:02 49° E 18:38:57 10° NNE
CENTAUR R/B 3.6 18:29:11 10° SSE 18:33:15 20° ESE 18:37:46 10° ENE
USA 306 4.1 18:29:39 10° NW 18:33:30 30° NNE 18:37:06 11° ENE
ATLAS CENTAUR R/B 2.8 18:31:29 10° WSW 18:34:48 32° NW 18:38:11 10° NNE
Cosmos 962 Rocket 4.5 18:30:33 10° S 18:36:45 76° E 18:43:04 10° NNE
Cosmos 1743 4.4 18:37:39 10° ESE 18:39:50 15° E 18:42:02 10° NE
Cosmos 1666 2.6 18:37:42 10° S 18:41:22 65° E 18:45:06 10° NNE
USA 308 4.0 18:39:14 10° NW 18:43:06 32° NNE 18:46:15 14° ENE
Cosmos 1703 Rocket 3.5 18:39:23 10° N 18:43:47 86° E 18:48:08 10° S
Cosmos 2322 3.7 18:38:44 10° SSW 18:44:26 76° ESE 18:50:10 10° NNE
CSL-04 Rocket 3.7 18:39:30 10° SSE 18:44:58 64° ENE 18:50:23 10° N
Cosmos 1339 Rocket 4.5 18:39:41 10° N 18:45:55 67° E 18:52:11 10° SSE
Cosmos 1844 Rocket 3.6 18:42:11 10° NW 18:47:35 52° WSW 18:52:57 10° S
Okean-O 2.8 18:43:42 10° S 18:48:07 75° WSW 18:52:34 10° NNW
BREEZE-M DEB (TANK) 3.4 18:46:37 10° SSW 18:48:48 32° SE 18:50:06 20° E
Cosmos 1933 Rocket 4.2 18:45:40 10° SSW 18:49:58 61° W 18:54:21 10° N
Cosmos 2366 rocket 4.1 18:45:07 10° SSE 18:51:15 55° E 18:57:26 10° NNE
ASTEX 1 4.1 18:47:54 10° NNE 18:52:10 29° E 18:56:24 10° SSE
H-2A R/B 2.7 18:46:46 10° S 18:52:11 65° WSW 18:57:35 10° NNW
Cosmos 1777 Rocket 4.0 18:46:59 10° NNW 18:52:15 86° ENE 18:57:27 10° SSE
CSL-04 Debris 4.1 18:47:07 10° SSE 18:52:34 78° ENE 18:58:04 10° NNW
SJ-6B 3.8 18:52:44 16° ESE 18:55:10 28° ENE 18:58:36 10° N
Ariane Rocket 3.9 18:55:34 15° ESE 18:58:50 30° ENE 19:03:13 10° N
Cosmos 2221 Rocket 4.3 18:55:11 10° N 18:59:13 33° ENE 19:02:11 16° SE
USA 186 2.2 18:59:36 27° ENE 18:59:36 27° ENE 19:01:44 10° N
OBJECT-B 2.1 19:02:10 23° ENE 19:02:10 23° ENE 19:04:41 10° NNE
NOSS 3-2 (C) 4.1 18:58:24 10° S 19:03:02 28° ESE 19:08:10 10° NE
Meteor 1-11 Rocket 3.6 18:59:32 10° S 19:05:09 69° E 19:10:43 10° NNE
Okean 1-7 3.8 19:03:37 10° NNW 19:07:53 55° W 19:12:04 10° S
Cosmos 2360 Rocket 3.7 19:03:43 10° WSW 19:08:58 38° NW 19:14:16 10° NNE
YAOGAN 1 3.9 19:05:02 10° S 19:09:07 42° W 19:13:14 10° NNW
FALCON 9 DEB 2.9 19:09:40 10° NW 19:12:50 65° NNE 19:13:45 41° E
SAR-Lupe-4 4.2 19:09:20 10° N 19:12:52 57° WNW 19:16:23 10° SSW
Cosmos 1943 Rocket 4.0 19:11:10 10° N 19:14:02 14° NE 19:15:25 13° NE
Cosmos 2341 Rocket 4.5 19:08:42 10° SSW 19:14:56 65° W 19:21:10 10° N
Meteor 1-13 Rocket 4.4 19:09:18 10° NNW 19:15:16 82° W 19:21:04 10° S
Cosmos 1821 Rocket 4.4 19:09:58 10° SSE 19:15:35 37° E 19:21:09 10° NNE
Cosmos 2237 Rocket 2.7 19:10:58 10° S 19:16:04 35° ESE 19:21:11 10° NE
SJ 16-02 1.4 19:12:21 10° NNW 19:16:44 58° ENE 19:19:19 23° SE
Cosmos 1727 Rocket 4.0 19:11:09 10° N 19:17:18 63° ENE 19:23:27 10° SSE
Cosmos 1544 3.4 19:13:59 10° SSE 19:17:23 39° E 19:20:50 10° NNE
DMSP B5D2-2 4.0 19:13:16 10° NNE 19:18:30 66° ESE 19:23:39 10° S
Cosmos 2278 Rocket 2.3 19:13:15 10° NNW 19:18:50 56° ENE 19:22:11 24° SE
Cosmos 1536 2.7 19:15:45 10° S 19:19:44 85° E 19:23:44 10° N
FALCON 9 DEB 2.8 19:17:33 10° WNW 19:20:43 84° NNE 19:21:22 53° ESE
Okean 3 3.5 19:16:51 10° N 19:21:09 80° W 19:25:26 10° S
SL-4 R/B 2.7 19:18:04 10° WNW 19:21:20 38° SW 19:22:57 23° SSE
USA 81 4.5 19:16:36 10° SSE 19:21:24 38° E 19:26:14 10° NNE
SWAS 4.3 19:17:23 10° SSW 19:21:40 81° ESE 19:26:01 10° NNE
SeaSat 1 2.3 19:20:28 10° NNE 19:25:25 74° ESE 19:30:21 10° SSW
Cosmos 2218 Rocket 4.1 19:19:09 10° S 19:25:33 82° W 19:31:59 10° N
Abrixas rocket 2.4 19:24:35 10° W 19:26:46 42° SW 19:26:46 42° SW
MetOp-A 4.0 19:24:06 10° SSE 19:29:27 82° ENE 19:34:51 10° NNW
Resurs 01 Rocket 2.9 19:31:41 24° NE 19:31:41 24° NE 19:34:33 10° N
SME Rocket 3.8 19:26:01 10° NNE 19:33:06 63° E 19:37:48 10° S
Meteor 2-20 Rocket 4.5 19:27:22 10° N 19:33:23 55° ENE 19:37:10 23° SSE
Helios 1A Rocket 4.5 19:31:11 10° SSW 19:34:54 36° W 19:38:39 10° NNW
Gbstr 26 Del rocket 3.6 19:31:38 10° WNW 19:36:20 63° NNE 19:38:19 38° E
Cosmos 2333 Rocket 3.1 19:30:57 10° SW 19:36:29 51° WNW 19:42:04 10° NNE
USA 234 3.5 19:33:08 25° ENE 19:36:36 45° SE 19:42:48 10° SSW
Lacrosse 4 Rocket 3.0 19:34:07 10° WSW 19:38:14 37° NW 19:42:27 10° NNE
Cosmos 1937 Rocket 4.1 19:34:52 10° N 19:39:34 34° ENE 19:39:49 34° ENE
USA 238 DEB 3.5 19:36:06 10° SSW 19:42:37 73° ESE 19:49:26 10° NE
USA 238 3.5 19:36:13 10° SSW 19:42:43 73° ESE 19:49:34 10° NE
DELTA 2 R/B (1) 4.0 19:40:09 10° WSW 19:45:24 45° S 19:46:36 39° SE
Resurs 1-3 3.6 19:45:27 54° E 19:45:36 54° ENE 19:49:54 10° N
FALCON 9 DEB 3.8 19:46:15 10° WNW 19:48:55 46° WSW 19:48:55 46° WSW
IRS-1A Rocket 4.1 19:46:16 24° SSE 19:49:43 82° ENE 19:55:17 10° NNW
Cosmos 2219 Rocket 3.3 19:47:26 10° SW 19:52:45 43° NW 19:58:06 10° NNE
Cosmos 1238 Rocket 3.7 19:51:16 10° SSW 19:55:14 47° W 19:58:36 10° N
CZ-2C R/B 4.0 19:51:16 10° N 19:56:20 40° WNW 20:01:16 10° SW
USA 305 2.9 19:54:37 10° NW 19:58:46 68° NNE 19:58:46 68° NNE
FALCON 9 DEB 4.3 19:55:47 10° WNW 19:58:05 38° W 19:58:05 38° W
Cosmos 1980 3.5 19:55:01 10° SSW 20:00:39 82° ESE 20:06:20 10° NNE
Cosmos 1733 Rocket 3.1 19:58:10 10° SSW 20:02:29 76° W 20:06:53 10° N
COSMOS 2428 4.0 20:02:31 10° SW 20:07:51 40° NW 20:13:13 10° NNE
NOSS 3-2 (A) 3.7 20:05:54 10° SW 20:11:32 65° NW 20:18:03 10° NE
USA 307 3.3 20:08:24 10° NW 20:12:00 61° NW 20:12:00 61° NW
USA 306 3.3 20:09:38 10° NW 20:13:13 60° NW 20:13:13 60° NW
Cosmos 1743 3.8 20:11:29 10° SSW 20:15:12 43° WNW 20:18:57 10° N
Cosmos 2369 Rocket 3.8 20:14:48 10° N 20:18:00 20° NNE 20:18:00 20° NNE
Cosmos 1898 Rocket 3.4 20:14:01 10° NNW 20:19:17 84° WSW 20:19:30 81° SSW
NOSS 0 Rocket 4.3 20:15:00 10° SW 20:21:05 63° WNW 20:27:13 10° NNE
CENTAUR R/B 2.5 20:16:57 10° SW 20:22:50 80° NW 20:29:58 10° NE
USA 308 3.7 20:19:13 10° WNW 20:22:24 49° WNW 20:22:24 49° WNW
OBJECT-B 3.7 20:35:13 17° WNW 20:35:13 17° WNW 20:36:44 10° NW
Ariane Rocket 4.2 20:35:45 28° SW 20:37:39 39° W 20:42:26 10° NNW
Cosmos 1763 Rocket 4.0 20:37:25 10° SW 20:42:39 58° WNW 20:47:55 10° NNE
Cosmos 2297 4.2 20:40:12 10° NNW 20:44:36 52° N 20:44:36 52° N
NOSS 3-2 (C) 3.9 20:47:47 10° SW 20:53:23 58° NW 20:55:55 35° NNE
SJ 16-02 4.0 20:52:21 10° WNW 20:54:48 15° W 20:56:22 12° WSW
Cosmos 1943 Rocket 3.2 20:53:22 10° NNW 20:56:58 38° N 20:56:58 38° N
Cosmos 2237 Rocket 3.4 20:54:41 10° SW 21:00:02 40° NW 21:05:25 10° NNE
Cosmos 2278 Rocket 4.0 20:58:03 10° NW 21:02:31 24° WSW 21:04:05 21° SW
Resurs 01 Rocket 3.8 21:09:14 24° NW 21:09:14 24° NW 21:11:22 10° NNW
USA 234 3.6 21:20:31 61° WNW 21:20:31 61° WNW 21:26:14 10° WSW
Cosmos 2369 Rocket 4.4 21:58:03 10° NNW 21:59:48 21° NNW 21:59:48 21° NNW
CENTAUR R/B 4.4 22:09:20 10° W 22:14:44 27° NNW 22:20:58 10° NNE
